Regional Weather Roundup
Issued by NWS

Home | Current Version | Previous Version | Graphics & Text | Print | Product List | Glossary On
Versions: 1 2 3 4 5 6 7 8 9 10 11 12 13 14 15 16 17 18 19 20 21 22 23 24 25 26 27 28 29 30 31 32 33 34 35 36 37 38 39 40 41 42 43 44 45 46 47 48 49 50
343
ASUS45 KBOU 130707
RWRCO

WEATHER ROUNDUP FOR COLORADO
NATIONAL WEATHER SERVICE DENVER/BOULDER CO
1200 AM MST SAT FEB 13 2016

NOTE: "FAIR" INDICATES FEW OR NO CLOUDS BELOW 12000 FEET WITH NO
SIGNIFICANT WEATHER AND/OR OBSTRUCTIONS TO VISIBILITY.

COZ001>005-013-030-031-130800-
...NORTHWEST COLORADO...

CITY           SKY/WX    TMP DP  RH WIND       PRES   REMARKS
CRAIG          FAIR      11   7  84 W3        30.30F
HAYDEN         FAIR      27  16  63 E14       30.29F WCI  15
MEEKER         FAIR      23  16  74 NE5       30.30F WCI  17
MOUNT WERNER   NOT AVBL
STEAMBOAT SPGS FAIR      24  20  83 CALM      30.31F
WALDEN         FAIR      34  21  60 SE5       30.30F WCI  30
$$

COZ006>008-011-130800-
...WEST CENTRAL VALLEYS...

CITY           SKY/WX    TMP DP  RH WIND       PRES   REMARKS
GRAND JUNCTION FAIR      28  26  92 CALM      30.32S
MONTROSE       FAIR      31  24  75 S8        30.35F WCI  23
EAGLE          FAIR      25  23  93 CALM      30.37S
RIFLE          FAIR      25  18  74 CALM      30.34F
DELTA          FAIR      33  28  81 CALM      30.34F
NUCLA          FAIR      34  27  75 E6        30.37S WCI  29
$$

COZ017>023-064>068-130800-
...SOUTHWEST COLORADO...

CITY           SKY/WX    TMP DP  RH WIND       PRES   REMARKS
DURANGO        FAIR      27  20  75 N6        30.37F WCI  20
CORTEZ         FAIR      24  20  84 CALM      30.35F
PAGOSA SPRINGS FAIR      28  22  75 CALM      30.40F
TELLURIDE      FAIR      35  20  54 SE6       30.44S WCI  30
WOLF CREEK PAS FAIR      30  14  51 SW20      30.55F WCI  18
$$

COZ009-010-012-014-032>034-037-058>063-130800-
...CENTRAL COLORADO...

CITY           SKY/WX    TMP DP  RH WIND       PRES   REMARKS
ASPEN          FAIR      26  18  71 S6        30.34F WCI  19
BUENA VISTA    FAIR      32  23  70 CALM      30.34F
COPPER MTN     FAIR      34  16  47 W17G24    30.46F WCI  23
BERTHOUD PASS  FAIR      27  16  63 NW35G41   30.42S WCI   9
COTTONWOOD PAS FAIR      41  14  33 W9        30.39F
GUNNISON       FAIR       5   0  78 NE6       30.48S WCI  -6
KREMMLING      FAIR       9   3  78 CALM      30.39S
LEADVILLE      FAIR      30  15  53 NE8       30.38F WCI  22
MONARCH PASS   FAIR      28  16  59 W26       30.58F WCI  13
SALIDA         NOT AVBL
SUNLIGHT       FAIR      32  21  64 CALM      30.47F
WILKERSON PASS FAIR      32  18  55 SW9       30.43F WCI  24
$$

COZ069>075-130800-
...SAN LUIS VALLEY/SANGRE DE CRISTO MOUNTAINS...

CITY           SKY/WX    TMP DP  RH WIND       PRES   REMARKS
ALAMOSA        FAIR      24  20  84 CALM      30.37F
LA VETA PASS   FAIR      34  19  55 MISG      30.42F
SAGUACHE       FAIR      32  23  69 NW12      30.38F WCI  23
$$

COZ035-036-038>040-130800-
...NORTHERN COLORADO FRONT RANGE...

CITY           SKY/WX    TMP DP  RH WIND       PRES   REMARKS
DENVER INTL AP FOG       27  26  96 CALM      30.19F VSB 1/4
DMNS CITY PARK   N/A     33  32  94 MISG      30.19F
AURORA         PTCLDY    34  33  96 NW1       30.19F
FRONT RANGE AP FOG       30  28  93 NW6       30.20F VSB 1/2 WCI  24
ERIE MUNI ARPT FOG       31  30  99 CALM      30.20F VSB 1/4
BOULDER MUN AP MOCLDY    32  32 100 NW3       30.20F
CENTENNIAL     MOCLDY    37  31  78 CALM      30.18F
BROOMFIELD     FAIR      32  32 100 N9        30.19F WCI  24
FORT COLLINS   CLOUDY    30  28  93 E6        30.22F VSB 1/4 WCI  24
LONGMONT       SNOW      33  32  96 NE3       30.23F VSB 1/4
$$

COZ041-046-047-076>085-087-088-130800-
...PIKES PEAK/PALMER DIVIDE AND SOUTHERN FOOTHILLS...

CITY           SKY/WX    TMP DP  RH WIND       PRES   REMARKS
COLO. SPRINGS  MOCLDY    36  27  69 CALM      30.26S
A. F. ACADEMY  FAIR      33  26  75 VRB1      30.24S
SCHRIEVER AFB  FAIR      32  27  83 N7        30.25F WCI  26
ELLICOTT       FAIR     N/A N/A N/A E10       30.23F FOG
FALCON         FAIR      32  25  75 W5        30.25F WCI  28
FORT CARSON    FAIR      35  28  78 S6        30.24F WCI  29
LIMON          CLOUDY    28  28 100 S15G22    30.25F FOG     WCI  16
MONUMENT HILL  FAIR      43  25  49 SW16      30.23F
TRINIDAD       FAIR      48  21  34 SW12      30.22F
$$

COZ042>045-048>051-090-091-130800-
...NORTHEAST COLORADO...

CITY           SKY/WX    TMP DP  RH WIND       PRES   REMARKS
GREELEY ARPT   CLOUDY    32  30  93 E6        30.23F VSB 1/2 WCI  26
AKRON          CLOUDY    30  30 100 S20G25    30.24F FOG     WCI  17
BURLINGTON     CLOUDY    28  26  92 S20       30.31F FOG     WCI  15
WRAY           CLOUDY   N/A N/A N/A SE14      30.33F FOG
STERLING       CLOUDY    32  32 100 S10       30.25F FOG     WCI  24
HOLYOKE        CLOUDY    34  32  93 S17       30.30F FOG     WCI  23
FORT MORGAN    CLOUDY    31  31  97 E8        30.22F WCI  24
$$

COZ086-089-092>099-130800-
...SOUTHEAST COLORADO...

CITY           SKY/WX    TMP DP  RH WIND       PRES   REMARKS
PUEBLO         FAIR      34  27  75 E7        30.26F WCI  28
LA JUNTA       FAIR      31  27  85 E7        30.24R WCI  24
LAMAR          CLOUDY    29  26  89 E14       30.30F WCI  18
SPRINGFIELD      N/A     28  26  92 S13       30.27F WCI  17
$$




USA.gov is the U.S. government's official web portal to all federal, state and local government web resources and services.